Location: Unspecified
(0.0000°N, 0.0000°E)
Time: 13:56:43
(UTC+00:00)

SRMSAT - Pass Details

Date: 12 December 2017
Orbit: 849 x 866 km, 20.0° (Epoch: 18 January)

Event Time Altitude Azimuth Distance (km) Brightness Sun altitude
Rises 18:45:18 0° 252° (WSW) 3,399 ? -11.8°
Reaches altitude 10° 18:48:50 10° 232° (SW) 2,463 ? -12.6°
Maximum altitude 18:52:29 17° 194° (SSW) 2,031 ? -13.4°
Drops below altitude 10° 18:56:09 10° 155° (SSE) 2,462 ? -14.3°
Sets 18:59:41 0° 135° (SE) 3,398 ? -15.1°
